When you browse on this site, cookies collect data to enhance your experience and personalize the content and advertising you see.
Visit our Privacy Policy to learn more. By continuing to use the site, you agree to this use of cookies and data.
  • In Hungary
  • List of Countries
  • For 7 days
  • Water Temperature
  • Satellite Maps
  • Weather Map
  • News
  • Weather Widgets
  • user-avatar
    Login

    Hourly Weather Aktyubinskiy

    Today, 22 July, Monday

    Time Temperature Precipitation Wind Pressure Humidity
    00:00 +14°C° 0 mm 3 mps 733 mmHg 94%
    01:00 +15°C° 0 mm 2 mps 732 mmHg 95%
    02:00 +14°C° 0 mm 2 mps 732 mmHg 95%
    03:00 +14°C° 0 mm 2 mps 732 mmHg 95%
    04:00 +14°C° 0 mm 2 mps 732 mmHg 95%
    05:00 +15°C° 0 mm 2 mps 732 mmHg 94%
    06:00 +14°C° 0 mm 3 mps 732 mmHg 93%
    07:00 +16°C° 0 mm 3 mps 733 mmHg 92%
    08:00 +17°C° 0.1 mm 3 mps 732 mmHg 87%
    09:00 +18°C° 0.1 mm 4 mps 732 mmHg 83%
    10:00 +19°C° 0.1 mm 4 mps 732 mmHg 79%
    11:00 +20°C° 0.3 mm 4 mps 732 mmHg 77%
    12:00 +21°C° 0.3 mm 4 mps 732 mmHg 74%
    13:00 +21°C° 0.3 mm 4 mps 732 mmHg 72%
    14:00 +21°C° 0.4 mm 4 mps 732 mmHg 72%
    15:00 +21°C° 0.4 mm 4 mps 731 mmHg 72%
    16:00 +21°C° 0.4 mm 4 mps 731 mmHg 72%
    17:00 +20°C° 0.4 mm 3 mps 731 mmHg 76%
    18:00 +20°C° 0.4 mm 3 mps 731 mmHg 80%
    19:00 +19°C° 0.4 mm 2 mps 731 mmHg 84%
    20:00 +17°C° 0 mm 3 mps 730 mmHg 87%
    21:00 +16°C° 0 mm 3 mps 730 mmHg 91%
    22:00 +14°C° 0 mm 3 mps 730 mmHg 94%
    23:00 +13°C° 0 mm 3 mps 730 mmHg 95%

    Tomorrow, 23 July, Tuesday

    Time Temperature Precipitation Wind Pressure Humidity
    00:00 +13°C° 0 mm 3 mps 730 mmHg 96%
    01:00 +13°C° 0 mm 3 mps 730 mmHg 96%
    02:00 +12°C° 0 mm 3 mps 730 mmHg 97%
    03:00 +12°C° 0 mm 3 mps 730 mmHg 97%
    04:00 +12°C° 0 mm 3 mps 730 mmHg 97%
    05:00 +13°C° 0 mm 4 mps 730 mmHg 96%
    06:00 +13°C° 0 mm 4 mps 730 mmHg 95%
    07:00 +14°C° 0 mm 4 mps 731 mmHg 94%
    08:00 +15°C° 0 mm 4 mps 731 mmHg 90%
    09:00 +16°C° 0 mm 5 mps 731 mmHg 87%
    10:00 +17°C° 0 mm 5 mps 731 mmHg 84%
    11:00 +19°C° 0.1 mm 5 mps 731 mmHg 81%
    12:00 +19°C° 0.1 mm 5 mps 731 mmHg 79%
    13:00 +20°C° 0.1 mm 5 mps 732 mmHg 76%
    14:00 +20°C° 0.1 mm 5 mps 732 mmHg 76%
    15:00 +21°C° 0.1 mm 5 mps 732 mmHg 75%
    16:00 +21°C° 0.1 mm 5 mps 732 mmHg 74%
    17:00 +20°C° 0 mm 4 mps 732 mmHg 77%
    18:00 +20°C° 0 mm 4 mps 732 mmHg 81%
    19:00 +20°C° 0 mm 3 mps 732 mmHg 84%
    20:00 +18°C° 0 mm 3 mps 732 mmHg 87%
    21:00 +17°C° 0 mm 3 mps 732 mmHg 91%
    22:00 +16°C° 0 mm 3 mps 732 mmHg 94%
    23:00 +14°C° 0 mm 3 mps 732 mmHg 95%

    Day after tomorrow, 24 July, Wednesday

    Time Temperature Precipitation Wind Pressure Humidity
    00:00 +15°C° 0 mm 2 mps 733 mmHg 95%
    01:00 +15°C° 0 mm 2 mps 733 mmHg 95%
    02:00 +15°C° 0 mm 2 mps 733 mmHg 95%
    03:00 +14°C° 0 mm 2 mps 733 mmHg 95%
    04:00 +14°C° 0 mm 2 mps 733 mmHg 95%
    05:00 +15°C° 0 mm 2 mps 733 mmHg 93%
    06:00 +16°C° 0 mm 2 mps 733 mmHg 91%
    07:00 +17°C° 0 mm 2 mps 734 mmHg 89%
    08:00 +18°C° 0 mm 2 mps 734 mmHg 84%
    09:00 +20°C° 0 mm 2 mps 734 mmHg 79%
    10:00 +21°C° 0 mm 2 mps 734 mmHg 74%
    11:00 +23°C° 0 mm 2 mps 734 mmHg 70%
    12:00 +24°C° 0 mm 2 mps 735 mmHg 66%
    13:00 +25°C° 0 mm 2 mps 735 mmHg 62%
    14:00 +25°C° 0 mm 2 mps 735 mmHg 63%
    15:00 +25°C° 0 mm 2 mps 735 mmHg 63%
    16:00 +25°C° 0 mm 2 mps 735 mmHg 63%
    17:00 +25°C° 0.1 mm 2 mps 735 mmHg 68%
    18:00 +24°C° 0.1 mm 2 mps 735 mmHg 73%
    19:00 +23°C° 0.1 mm 2 mps 735 mmHg 78%
    20:00 +22°C° 0 mm 1 mps 735 mmHg 81%
    21:00 +20°C° 0 mm 1 mps 735 mmHg 84%
    22:00 +17°C° 0 mm 0 mps 735 mmHg 87%
    23:00 +16°C° 0 mm 0 mps 735 mmHg 87%

    25 July, Thursday

    Time Temperature Precipitation Wind Pressure Humidity
    00:00 +16°C° 0 mm 0 mps 735 mmHg 88%
    01:00 +16°C° 0 mm 0 mps 735 mmHg 88%
    02:00 +15°C° 0 mm 0 mps 735 mmHg 89%
    03:00 +15°C° 0 mm 0 mps 735 mmHg 89%
    04:00 +15°C° 0 mm 0 mps 735 mmHg 90%
    05:00 +16°C° 0 mm 0 mps 735 mmHg 88%
    06:00 +17°C° 0 mm 0 mps 735 mmHg 87%
    07:00 +20°C° 0 mm 1 mps 736 mmHg 86%
    08:00 +21°C° 0 mm 1 mps 736 mmHg 82%
    09:00 +22°C° 0 mm 1 mps 736 mmHg 78%
    10:00 +23°C° 0 mm 1 mps 736 mmHg 75%
    11:00 +24°C° 0.1 mm 1 mps 736 mmHg 72%
    12:00 +24°C° 0.1 mm 1 mps 736 mmHg 70%
    13:00 +25°C° 0.1 mm 1 mps 736 mmHg 67%
    14:00 +25°C° 0.2 mm 1 mps 735 mmHg 66%
    15:00 +25°C° 0.2 mm 1 mps 735 mmHg 65%
    16:00 +26°C° 0.2 mm 1 mps 735 mmHg 64%
    17:00 +25°C° 0.1 mm 1 mps 734 mmHg 68%
    18:00 +25°C° 0.1 mm 1 mps 734 mmHg 72%
    19:00 +24°C° 0.1 mm 1 mps 734 mmHg 76%
    20:00 +23°C° 0 mm 1 mps 734 mmHg 79%
    21:00 +21°C° 0 mm 1 mps 734 mmHg 82%
    22:00 +20°C° 0 mm 1 mps 734 mmHg 85%
    23:00 +20°C° 0 mm 1 mps 734 mmHg 85%

    26 July, Friday

    Time Temperature Precipitation Wind Pressure Humidity
    00:00 +19°C° 0 mm 1 mps 733 mmHg 85%
    01:00 +19°C° 0 mm 1 mps 733 mmHg 86%
    02:00 +17°C° 0 mm 0 mps 733 mmHg 86%
    03:00 +16°C° 0 mm 0 mps 733 mmHg 87%
    04:00 +16°C° 0 mm 0 mps 733 mmHg 88%
    05:00 +19°C° 0.1 mm 1 mps 733 mmHg 87%
    06:00 +19°C° 0.1 mm 1 mps 733 mmHg 86%
    07:00 +20°C° 0.1 mm 1 mps 733 mmHg 85%
    08:00 +21°C° 1 mm 1 mps 732 mmHg 82%
    09:00 +21°C° 1 mm 2 mps 732 mmHg 80%
    10:00 +23°C° 1 mm 2 mps 732 mmHg 77%
    11:00 +23°C° 1.1 mm 2 mps 732 mmHg 78%
    12:00 +23°C° 1.1 mm 2 mps 732 mmHg 78%
    13:00 +23°C° 1.1 mm 2 mps 731 mmHg 79%
    14:00 +23°C° 0.4 mm 2 mps 731 mmHg 74%
    15:00 +24°C° 0.4 mm 2 mps 731 mmHg 70%
    16:00 +24°C° 0.4 mm 1 mps 731 mmHg 66%
    17:00 +24°C° 0.2 mm 1 mps 730 mmHg 69%
    18:00 +23°C° 0.2 mm 1 mps 730 mmHg 72%
    19:00 +23°C° 0.2 mm 1 mps 730 mmHg 76%
    20:00 +21°C° 0 mm 1 mps 729 mmHg 78%
    21:00 +20°C° 0 mm 1 mps 729 mmHg 81%
    22:00 +18°C° 0 mm 1 mps 729 mmHg 84%
    23:00 +18°C° 0 mm 1 mps 728 mmHg 85%

    27 July, Saturday

    Time Temperature Precipitation Wind Pressure Humidity
    00:00 +16°C° 0 mm 1 mps 728 mmHg 85%
    01:00 +16°C° 0 mm 1 mps 728 mmHg 86%
    02:00 +15°C° 0 mm 1 mps 728 mmHg 86%
    03:00 +15°C° 0 mm 1 mps 727 mmHg 87%
    04:00 +15°C° 0 mm 1 mps 727 mmHg 87%
    05:00 +16°C° 0 mm 1 mps 727 mmHg 86%
    06:00 +18°C° 0 mm 1 mps 727 mmHg 84%
    07:00 +19°C° 0 mm 1 mps 727 mmHg 83%
    08:00 +20°C° 0 mm 1 mps 727 mmHg 79%
    09:00 +20°C° 0 mm 2 mps 726 mmHg 75%
    10:00 +21°C° 0 mm 2 mps 726 mmHg 71%
    11:00 +21°C° 0.1 mm 2 mps 726 mmHg 68%
    12:00 +23°C° 0.1 mm 2 mps 726 mmHg 66%
    13:00 +24°C° 0.1 mm 3 mps 726 mmHg 63%
    14:00 +22°C° 0.6 mm 3 mps 725 mmHg 66%
    15:00 +22°C° 0.6 mm 3 mps 725 mmHg 69%
    16:00 +21°C° 0.6 mm 3 mps 725 mmHg 72%
    17:00 +21°C° 0.6 mm 3 mps 724 mmHg 76%
    18:00 +20°C° 0.6 mm 3 mps 724 mmHg 81%
    19:00 +19°C° 0.6 mm 3 mps 724 mmHg 85%
    20:00 +18°C° 0 mm 3 mps 723 mmHg 88%
    21:00 +16°C° 0 mm 3 mps 723 mmHg 92%
    22:00 +15°C° 0 mm 2 mps 723 mmHg 95%
    23:00 +15°C° 0 mm 2 mps 723 mmHg 96%
    Show more